time, Switch, Flow(0), Analog(2)
yyyy/mm/dd HH:MM:SS.fff, True=FILTERED|False=TOTAL, L/min, V
2023/06/09 01:00:00.480, True, 4.897, 0.152438
2023/06/09 01:00:00.976, True, 4.722, 0.151904
2023/06/09 01:00:01.472, True, 4.718, 0.151675
2023/06/09 01:00:01.976, True, 4.646, 0.149538
2023/06/09 01:00:02.480, True, 4.633, 0.152972
2023/06/09 01:00:02.976, True, 4.718, 0.152972
2023/06/09 01:00:03.480, True, 4.310, 0.152972
2023/06/09 01:00:03.984, True, 4.311, 0.152132
2023/06/09 01:00:04.480, True, 2.696, 0.152667
2023/06/09 01:00:04.984, True, 1.658, 0.152361
2023/06/09 01:00:05.488, True, 1.658, 0.148775
2023/06/09 01:00:05.984, True, 1.348, 0.151751
2023/06/09 01:00:06.488, True, 1.326, 0.150835
2023/06/09 01:00:06.992, True, 1.326, 0.152438
2023/06/09 01:00:07.488, True, 1.348, 0.151904
2023/06/09 01:00:07.992, True, 1.326, 0.153964
2023/06/09 01:00:08.496, True, 1.326, 0.152209
2023/06/09 01:00:08.992, True, 1.348, 0.152895
2023/06/09 01:00:09.495, True, 1.326, 0.152667
2023/06/09 01:00:10.000, True, 1.659, 0.150378
2023/06/09 01:00:10.496, True, 1.347, 0.151064
2023/06/09 01:00:11.000, True, 1.326, 0.151522
2023/06/09 01:00:11.504, True, 1.326, 0.151827
2023/06/09 01:00:12.000, True, 1.685, 0.152361
2023/06/09 01:00:12.504, True, 1.327, 0.151598
2023/06/09 01:00:13.008, True, 1.327, 0.150530
2023/06/09 01:00:13.504, True, 1.347, 0.151904
2023/06/09 01:00:14.008, True, 1.326, 0.151369
2023/06/09 01:00:14.512, True, 1.658, 0.152819
2023/06/09 01:00:15.008, True, 1.348, 0.152132
2023/06/09 01:00:15.512, True, 1.326, 0.152972
2023/06/09 01:00:16.016, True, 1.328, 0.151827
2023/06/09 01:00:16.512, True, 1.346, 0.149920
2023/06/09 01:00:17.016, True, 1.326, 0.150225
2023/06/09 01:00:17.519, True, 1.658, 0.150301
2023/06/09 01:00:18.016, True, 1.347, 0.152972
2023/06/09 01:00:18.520, True, 1.327, 0.152056
2023/06/09 01:00:19.024, True, 1.658, 0.155489
2023/06/09 01:00:19.519, True, 1.348, 0.150912
2023/06/09 01:00:20.024, True, 1.326, 0.152743
2023/06/09 01:00:20.527, True, 1.328, 0.149462
2023/06/09 01:00:21.032, True, 1.656, 0.152209
2023/06/09 01:00:21.528, True, 1.348, 0.151141
2023/06/09 01:00:22.031, True, 1.327, 0.149004
2023/06/09 01:00:22.535, True, 1.658, 0.151675
2023/06/09 01:00:23.031, True, 1.349, 0.149157
2023/06/09 01:00:23.536, True, 1.328, 0.151827
2023/06/09 01:00:24.039, True, 1.657, 0.152056
2023/06/09 01:00:24.535, True, 1.346, 0.150530
2023/06/09 01:00:25.040, True, 1.659, 0.152361
2023/06/09 01:00:25.544, True, 1.326, 0.151904
2023/06/09 01:00:26.040, True, 1.349, 0.151751
2023/06/09 01:00:26.544, True, 1.658, 0.151064
2023/06/09 01:00:27.048, True, 1.326, 0.152972
2023/06/09 01:00:27.544, True, 1.347, 0.152056
2023/06/09 01:00:28.048, True, 1.327, 0.153201
2023/06/09 01:00:28.552, True, 1.326, 0.153735
2023/06/09 01:00:29.048, True, 1.347, 0.149157
2023/06/09 01:00:29.552, True, 1.326, 0.151446
2023/06/09 01:00:30.056, True, 1.659, 0.151141
2023/06/09 01:00:30.552, True, 1.348, 0.149767
2023/06/09 01:00:31.056, True, 1.327, 0.151598
2023/06/09 01:00:31.560, True, 1.326, 0.152209
2023/06/09 01:00:32.064, True, 1.328, 0.152514
2023/06/09 01:00:32.560, True, 1.346, 0.154116
2023/06/09 01:00:33.064, True, 1.660, 0.152361
2023/06/09 01:00:33.560, True, 1.346, 0.152361
2023/06/09 01:00:34.064, True, 1.658, 0.153506
2023/06/09 01:00:34.568, True, 1.327, 0.149081
2023/06/09 01:00:35.072, True, 1.326, 0.151522
2023/06/09 01:00:35.568, True, 1.348, 0.152056
2023/06/09 01:00:36.072, True, 1.660, 0.152438
2023/06/09 01:00:36.576, True, 1.326, 0.151217
2023/06/09 01:00:37.072, True, 1.347, 0.151827
2023/06/09 01:00:37.576, True, 1.658, 0.151369
2023/06/09 01:00:38.080, True, 1.326, 0.151446
2023/06/09 01:00:38.576, True, 1.350, 0.153124
2023/06/09 01:00:39.080, True, 1.324, 0.151751
2023/06/09 01:00:39.584, True, 1.328, 0.150607
2023/06/09 01:00:40.079, True, 1.682, 0.150454
2023/06/09 01:00:40.584, True, 1.328, 0.150607
2023/06/09 01:00:41.088, True, 1.325, 0.151446
2023/06/09 01:00:41.583, True, 1.684, 0.150149
2023/06/09 01:00:42.088, True, 1.326, 0.151217
2023/06/09 01:00:42.592, True, 1.326, 0.153048
2023/06/09 01:00:43.088, True, 1.685, 0.150378
2023/06/09 01:00:43.592, True, 1.326, 0.151369
2023/06/09 01:00:44.096, True, 1.326, 0.152514
2023/06/09 01:00:44.592, True, 1.348, 0.151141
2023/06/09 01:00:45.096, True, 1.658, 0.153582
2023/06/09 01:00:45.600, True, 1.329, 0.152819
2023/06/09 01:00:46.096, True, 1.346, 0.153048
2023/06/09 01:00:46.600, True, 1.326, 0.155489
2023/06/09 01:00:47.104, True, 1.658, 0.155032
2023/06/09 01:00:47.600, True, 1.348, 0.154955
2023/06/09 01:00:48.104, True, 1.326, 0.153277
2023/06/09 01:00:48.608, True, 1.326, 0.155871
2023/06/09 01:00:49.103, True, 1.687, 0.154192
2023/06/09 01:00:49.608, True, 1.325, 0.156481
2023/06/09 01:00:50.112, True, 1.326, 0.157168
2023/06/09 01:00:50.608, True, 1.685, 0.157244
2023/06/09 01:00:51.112, True, 1.326, 0.157092
2023/06/09 01:00:51.615, True, 1.327, 0.155337
2023/06/09 01:00:52.112, True, 1.685, 0.155261
2023/06/09 01:00:52.616, True, 1.326, 0.159686
2023/06/09 01:00:53.120, True, 1.327, 0.157626
2023/06/09 01:00:53.616, True, 1.348, 0.157549
2023/06/09 01:00:54.120, True, 1.658, 0.160449
2023/06/09 01:00:54.624, True, 1.327, 0.159075
2023/06/09 01:00:55.119, True, 1.350, 0.159838
2023/06/09 01:00:55.624, True, 1.655, 0.159762
2023/06/09 01:00:56.128, True, 1.326, 0.159457
2023/06/09 01:00:56.624, True, 1.685, 0.160601
2023/06/09 01:00:57.128, True, 1.327, 0.162432
2023/06/09 01:00:57.632, True, 1.326, 0.162356
2023/06/09 01:00:58.128, True, 1.684, 0.161288
2023/06/09 01:00:58.632, True, 1.326, 0.161212
2023/06/09 01:00:59.136, True, 1.658, 0.160601
2023/06/09 01:00:59.632, True, 1.350, 0.161288
2023/06/09 01:01:00.136, True, 1.324, 0.161746
2023/06/09 01:01:00.640, True, 1.658, 0.165637
2023/06/09 01:01:01.144, True, 1.326, 0.162432
2023/06/09 01:01:01.640, True, 1.688, 0.162966
2023/06/09 01:01:02.144, True, 1.324, 0.163348
2023/06/09 01:01:02.648, True, 1.326, 0.162814
2023/06/09 01:01:03.144, True, 1.351, 0.164492
2023/06/09 01:01:03.648, True, 1.324, 0.163424
2023/06/09 01:01:04.152, True, 1.327, 0.161517
2023/06/09 01:01:04.648, True, 1.684, 0.163653
2023/06/09 01:01:05.152, True, 1.326, 0.161975
2023/06/09 01:01:05.656, True, 1.326, 0.164492
2023/06/09 01:01:06.152, True, 1.685, 0.163119
2023/06/09 01:01:06.656, True, 1.327, 0.163119
2023/06/09 01:01:07.160, True, 1.326, 0.163348
2023/06/09 01:01:07.656, True, 1.684, 0.163806
2023/06/09 01:01:08.160, True, 1.327, 0.162051
2023/06/09 01:01:08.663, True, 1.326, 0.163653
2023/06/09 01:01:09.160, True, 1.348, 0.162509
2023/06/09 01:01:09.664, True, 1.658, 0.162127
2023/06/09 01:01:10.168, True, 1.327, 0.163424
2023/06/09 01:01:10.664, True, 1.348, 0.163653
2023/06/09 01:01:11.168, True, 1.326, 0.161517
2023/06/09 01:01:11.672, True, 1.657, 0.165484
2023/06/09 01:01:12.168, True, 1.348, 0.163348
2023/06/09 01:01:12.671, True, 1.326, 0.165179
2023/06/09 01:01:13.175, True, 1.658, 0.163577
2023/06/09 01:01:13.672, True, 1.348, 0.165255
2023/06/09 01:01:14.176, True, 1.328, 0.165179
2023/06/09 01:01:14.680, True, 1.324, 0.164950
2023/06/09 01:01:15.176, True, 1.685, 0.166171
2023/06/09 01:01:15.680, True, 1.326, 0.164721
2023/06/09 01:01:16.184, True, 1.326, 0.163577
2023/06/09 01:01:16.680, True, 1.348, 0.163348
2023/06/09 01:01:17.184, True, 1.658, 0.163043
2023/06/09 01:01:17.688, True, 1.326, 0.162127
2023/06/09 01:01:18.184, True, 1.348, 0.171130
2023/06/09 01:01:18.688, True, 1.659, 0.165179
2023/06/09 01:01:19.192, True, 1.326, 0.164263
2023/06/09 01:01:19.688, True, 1.348, 0.163043
2023/06/09 01:01:20.192, True, 1.659, 0.164416
2023/06/09 01:01:20.696, True, 1.328, 0.164034
2023/06/09 01:01:21.192, True, 1.345, 0.163195
2023/06/09 01:01:21.696, True, 1.658, 0.166018
2023/06/09 01:01:22.192, True, 1.348, 0.166323
2023/06/09 01:01:22.696, True, 1.326, 0.163577
2023/06/09 01:01:23.200, True, 1.326, 0.164263
2023/06/09 01:01:23.696, True, 1.348, 0.161746
2023/06/09 01:01:24.200, True, 1.326, 0.161746
2023/06/09 01:01:24.704, True, 1.326, 0.163500
2023/06/09 01:01:25.208, True, 1.326, 0.164340
2023/06/09 01:01:25.704, True, 1.685, 0.163424
2023/06/09 01:01:26.208, True, 1.326, 0.163577
2023/06/09 01:01:26.704, True, 1.686, 0.161669
2023/06/09 01:01:27.208, True, 1.326, 0.163424
2023/06/09 01:01:27.712, True, 1.658, 0.163806
2023/06/09 01:01:28.208, True, 1.348, 0.163424
2023/06/09 01:01:28.712, True, 1.326, 0.163500
2023/06/09 01:01:29.216, True, 1.326, 0.163348
2023/06/09 01:01:29.712, True, 1.348, 0.164416
2023/06/09 01:01:30.216, True, 1.658, 0.163043
2023/06/09 01:01:30.720, True, 0.995, 0.164645
2023/06/09 01:01:31.216, True, 1.348, 0.163424
2023/06/09 01:01:31.720, True, 1.658, 0.164569
2023/06/09 01:01:32.224, True, 1.660, 0.163958
2023/06/09 01:01:32.720, True, 1.346, 0.163500
2023/06/09 01:01:33.223, True, 1.328, 0.165637
2023/06/09 01:01:33.728, True, 1.656, 0.161746
2023/06/09 01:01:34.223, True, 1.348, 0.161898
2023/06/09 01:01:34.728, True, 1.661, 0.164797
2023/06/09 01:01:35.232, True, 1.324, 0.164416
2023/06/09 01:01:35.728, True, 1.349, 0.165942
2023/06/09 01:01:36.232, True, 1.326, 0.161517
2023/06/09 01:01:36.735, True, 1.658, 0.163043
2023/06/09 01:01:37.231, True, 1.348, 0.163348
2023/06/09 01:01:37.736, True, 1.658, 0.164416
2023/06/09 01:01:38.240, True, 1.326, 0.164874
2023/06/09 01:01:38.736, True, 1.348, 0.164492
2023/06/09 01:01:39.240, True, 1.327, 0.162051
2023/06/09 01:01:39.744, True, 1.657, 0.165332
2023/06/09 01:01:40.240, True, 1.348, 0.163806
2023/06/09 01:01:40.744, True, 1.327, 0.164111
2023/06/09 01:01:41.248, True, 1.658, 0.162051
2023/06/09 01:01:41.744, True, 1.347, 0.161364
2023/06/09 01:01:42.248, True, 1.327, 0.164950
2023/06/09 01:01:42.752, True, 1.326, 0.165408
2023/06/09 01:01:43.248, True, 1.348, 0.163653
2023/06/09 01:01:43.752, True, 1.327, 0.165026
2023/06/09 01:01:44.255, True, 1.326, 0.166018
2023/06/09 01:01:44.752, True, 1.349, 0.164950
2023/06/09 01:01:45.256, True, 1.325, 0.164034
2023/06/09 01:01:45.760, True, 1.327, 0.163958
2023/06/09 01:01:46.256, True, 1.685, 0.163806
2023/06/09 01:01:46.759, True, 1.326, 0.167544
2023/06/09 01:01:47.264, True, 1.327, 0.162432
2023/06/09 01:01:47.760, True, 1.348, 0.163577
2023/06/09 01:01:48.264, True, 1.327, 0.162966
2023/06/09 01:01:48.768, True, 1.326, 0.163653
2023/06/09 01:01:49.271, True, 1.327, 0.162966
2023/06/09 01:01:49.767, True, 1.350, 0.164416
2023/06/09 01:01:50.272, True, 1.324, 0.166705
2023/06/09 01:01:50.776, True, 1.327, 0.162432
2023/06/09 01:01:51.272, True, 1.685, 0.163882
2023/06/09 01:01:51.776, True, 1.326, 0.162661
2023/06/09 01:01:52.280, True, 1.660, 0.164416
2023/06/09 01:01:52.776, True, 1.348, 0.163348
2023/06/09 01:01:53.280, True, 1.656, 0.162966
2023/06/09 01:01:53.784, True, 1.327, 0.163195
2023/06/09 01:01:54.280, True, 1.349, 0.162737
2023/06/09 01:01:54.783, True, 1.325, 0.162814
2023/06/09 01:01:55.287, True, 1.329, 0.164492
2023/06/09 01:01:55.784, True, 1.683, 0.165255
2023/06/09 01:01:56.288, True, 1.326, 0.164263
2023/06/09 01:01:56.792, True, 1.327, 0.163272
2023/06/09 01:01:57.287, True, 1.348, 0.165484
2023/06/09 01:01:57.792, True, 1.326, 0.163729
2023/06/09 01:01:58.296, True, 1.327, 0.162966
2023/06/09 01:01:58.792, True, 1.685, 0.161593
2023/06/09 01:01:59.295, True, 1.327, 0.170062
2023/06/09 01:01:59.800, True, 1.326, 0.162814
2023/06/09 01:02:00.303, True, 1.327, 0.163043
2023/06/09 01:02:00.800, True, 1.346, 0.165179
2023/06/09 01:02:01.304, True, 1.659, 0.162509
2023/06/09 01:02:01.800, True, 1.349, 0.160678
2023/06/09 01:02:02.303, True, 1.325, 0.162509
2023/06/09 01:02:02.807, True, 1.328, 0.163729
2023/06/09 01:02:03.304, True, 1.683, 0.163806
2023/06/09 01:02:03.808, True, 1.326, 0.163272
2023/06/09 01:02:04.311, True, 1.327, 0.162966
2023/06/09 01:02:04.808, True, 1.350, 0.162661
2023/06/09 01:02:05.312, True, 1.324, 0.164874
2023/06/09 01:02:05.816, True, 1.661, 0.163653
2023/06/09 01:02:06.312, True, 1.348, 0.162814
2023/06/09 01:02:06.816, True, 1.324, 0.163424
2023/06/09 01:02:07.312, True, 1.685, 0.161135
2023/06/09 01:02:07.816, True, 1.329, 0.162280
2023/06/09 01:02:08.320, True, 1.324, 0.160296
2023/06/09 01:02:08.824, True, 1.658, 0.161059
2023/06/09 01:02:09.320, True, 1.350, 0.162203
2023/06/09 01:02:09.823, True, 1.324, 0.163500
2023/06/09 01:02:10.328, True, 1.329, 0.163729
2023/06/09 01:02:10.823, True, 1.345, 0.161517
2023/06/09 01:02:11.328, True, 1.659, 0.161059
2023/06/09 01:02:11.832, True, 1.325, 0.162509
2023/06/09 01:02:12.328, True, 1.348, 0.163653
2023/06/09 01:02:12.832, True, 1.657, 0.162509
2023/06/09 01:02:13.335, True, 1.329, 0.161440
2023/06/09 01:02:13.832, True, 1.345, 0.161517
2023/06/09 01:02:14.336, True, 1.660, 0.162203
2023/06/09 01:02:14.832, True, 1.346, 0.163043
2023/06/09 01:02:15.335, True, 1.326, 0.161822
2023/06/09 01:02:15.840, True, 1.326, 0.162280
2023/06/09 01:02:16.336, True, 1.685, 0.161898
2023/06/09 01:02:16.840, True, 1.328, 0.161975
2023/06/09 01:02:17.344, True, 1.325, 0.161593
2023/06/09 01:02:17.840, True, 1.685, 0.161746
2023/06/09 01:02:18.344, True, 1.326, 0.161059
2023/06/09 01:02:18.848, True, 1.326, 0.171130
2023/06/09 01:02:19.352, True, 1.327, 0.163577
2023/06/09 01:02:19.848, True, 1.684, 0.161288
2023/06/09 01:02:20.352, True, 1.327, 0.161593
2023/06/09 01:02:20.848, True, 1.348, 0.161288
2023/06/09 01:02:21.352, True, 1.326, 0.163958
2023/06/09 01:02:21.855, True, 1.660, 0.163272
2023/06/09 01:02:22.360, True, 1.325, 0.161975
2023/06/09 01:02:22.856, True, 1.348, 0.163195
2023/06/09 01:02:23.360, True, 1.326, 0.165789
2023/06/09 01:02:23.864, True, 1.658, 0.163043
2023/06/09 01:02:24.360, True, 1.348, 0.161517
2023/06/09 01:02:24.864, True, 1.326, 0.162432
2023/06/09 01:02:25.367, True, 1.326, 0.162966
2023/06/09 01:02:25.864, True, 1.348, 0.162356
2023/06/09 01:02:26.368, True, 1.658, 0.159915
2023/06/09 01:02:26.872, True, 1.326, 0.160372
2023/06/09 01:02:27.368, True, 1.349, 0.158694
2023/06/09 01:02:27.872, True, 1.325, 0.161746
2023/06/09 01:02:28.376, True, 1.326, 0.162280
2023/06/09 01:02:28.872, True, 1.348, 0.161746
2023/06/09 01:02:29.376, True, 1.658, 0.161517
2023/06/09 01:02:29.880, True, 1.326, 0.162280
2023/06/09 01:02:30.376, True, 1.684, 0.160983
2023/06/09 01:02:30.880, True, 1.327, 0.162585
2023/06/09 01:02:31.376, True, 1.348, 0.160906
2023/06/09 01:02:31.880, True, 1.326, 0.161135
2023/06/09 01:02:32.384, True, 1.327, 0.161288
2023/06/09 01:02:32.880, True, 1.684, 0.160143
2023/06/09 01:02:33.383, True, 1.327, 0.161517
2023/06/09 01:02:33.888, True, 1.326, 0.160372
2023/06/09 01:02:34.384, True, 1.685, 0.160296
2023/06/09 01:02:34.888, True, 1.328, 0.161440
2023/06/09 01:02:35.392, True, 1.656, 0.161593
2023/06/09 01:02:35.888, True, 1.349, 0.162203
2023/06/09 01:02:36.392, True, 1.325, 0.161364
2023/06/09 01:02:36.896, True, 1.328, 0.161669
2023/06/09 01:02:37.392, True, 1.682, 0.166934
2023/06/09 01:02:37.896, True, 1.327, 0.158999
2023/06/09 01:02:38.400, True, 1.326, 0.161746
2023/06/09 01:02:38.896, True, 1.348, 0.161746
2023/06/09 01:02:39.400, True, 1.326, 0.162890
2023/06/09 01:02:39.903, True, 1.658, 0.161517
2023/06/09 01:02:40.400, True, 1.348, 0.161669
2023/06/09 01:02:40.904, True, 1.326, 0.161059
2023/06/09 01:02:41.408, True, 1.658, 0.161517
2023/06/09 01:02:41.904, True, 1.348, 0.161822
2023/06/09 01:02:42.408, True, 1.326, 0.160372
2023/06/09 01:02:42.912, True, 1.658, 0.161517
2023/06/09 01:02:43.408, True, 1.348, 0.159838
2023/06/09 01:02:43.912, True, 1.326, 0.160449
2023/06/09 01:02:44.408, True, 1.685, 0.160296
2023/06/09 01:02:44.911, True, 1.326, 0.159991
2023/06/09 01:02:45.416, True, 1.326, 0.162509
2023/06/09 01:02:45.912, True, 1.349, 0.160754
2023/06/09 01:02:46.416, True, 1.657, 0.161212
2023/06/09 01:02:46.920, True, 1.327, 0.160983
2023/06/09 01:02:47.424, True, 1.326, 0.160372
2023/06/09 01:02:47.920, True, 1.685, 0.158694
2023/06/09 01:02:48.424, True, 1.326, 0.159991
2023/06/09 01:02:48.920, True, 1.348, 0.161975
2023/06/09 01:02:49.423, True, 1.659, 0.159304
2023/06/09 01:02:49.928, True, 1.326, 0.160220
2023/06/09 01:02:50.432, True, 1.327, 0.160830
2023/06/09 01:02:50.927, True, 1.685, 0.159228
2023/06/09 01:02:51.432, True, 1.326, 0.162356
2023/06/09 01:02:51.935, True, 1.658, 0.160296
2023/06/09 01:02:52.432, True, 1.348, 0.160067
2023/06/09 01:02:52.936, True, 1.326, 0.160296
2023/06/09 01:02:53.440, True, 1.327, 0.158846
2023/06/09 01:02:53.936, True, 1.684, 0.160372
2023/06/09 01:02:54.440, True, 1.326, 0.159915
2023/06/09 01:02:54.936, True, 1.348, 0.160601
2023/06/09 01:02:55.440, True, 1.658, 0.158465
2023/06/09 01:02:55.943, True, 1.326, 0.160525
2023/06/09 01:02:56.440, True, 1.685, 0.158465
2023/06/09 01:02:56.944, True, 1.326, 0.157397
2023/06/09 01:02:57.448, True, 1.658, 0.160220
2023/06/09 01:02:57.952, True, 1.328, 0.161593
2023/06/09 01:02:58.447, True, 1.345, 0.161288
2023/06/09 01:02:58.952, True, 1.327, 0.158083
2023/06/09 01:02:59.455, True, 1.328, 0.162127
2023/06/09 01:02:59.952, True, 1.682, 0.159991
2023/06/09 01:03:00.455, True, 1.326, 0.159915
2023/06/09 01:03:00.960, True, 1.326, 0.157626
2023/06/09 01:03:01.456, True, 1.348, 0.159533
2023/06/09 01:03:01.960, True, 1.661, 0.158618
2023/06/09 01:03:02.464, True, 1.324, 0.160143
2023/06/09 01:03:02.959, True, 1.349, 0.158618
2023/06/09 01:03:03.463, True, 1.327, 0.159838
2023/06/09 01:03:03.967, True, 1.325, 0.159762
2023/06/09 01:03:04.471, True, 1.660, 0.161135
2023/06/09 01:03:04.967, True, 1.348, 0.158618
2023/06/09 01:03:05.472, True, 1.324, 0.159609
2023/06/09 01:03:05.976, True, 1.326, 0.160143
2023/06/09 01:03:06.480, True, 1.328, 0.160296
2023/06/09 01:03:06.976, True, 1.683, 0.157092
2023/06/09 01:03:07.479, True, 1.326, 0.160601
2023/06/09 01:03:07.976, True, 1.348, 0.159457
2023/06/09 01:03:08.480, True, 1.326, 0.160525
2023/06/09 01:03:08.984, True, 1.327, 0.158541
2023/06/09 01:03:09.488, True, 1.658, 0.158465
2023/06/09 01:03:09.984, True, 1.348, 0.158923
2023/06/09 01:03:10.488, True, 1.327, 0.161135
2023/06/09 01:03:10.992, True, 1.326, 0.157626
2023/06/09 01:03:11.488, True, 1.348, 0.161212
2023/06/09 01:03:11.991, True, 1.660, 0.158465
2023/06/09 01:03:12.496, True, 1.325, 0.158389
2023/06/09 01:03:12.992, True, 1.685, 0.159533
2023/06/09 01:03:13.496, True, 1.328, 0.160906
2023/06/09 01:03:13.999, True, 1.326, 0.159457
2023/06/09 01:03:14.495, True, 1.347, 0.158236
2023/06/09 01:03:14.999, True, 1.658, 0.161440
2023/06/09 01:03:15.504, True, 1.327, 0.158846
2023/06/09 01:03:15.999, True, 1.348, 0.158923
2023/06/09 01:03:16.504, True, 1.326, 0.158923
2023/06/09 01:03:17.007, True, 1.326, 0.160754
2023/06/09 01:03:17.503, True, 1.348, 0.157321
2023/06/09 01:03:18.008, True, 1.658, 0.158846
2023/06/09 01:03:18.511, True, 1.327, 0.159762
2023/06/09 01:03:19.007, True, 1.348, 0.160601
2023/06/09 01:03:19.511, True, 1.658, 0.159304
2023/06/09 01:03:20.015, True, 1.658, 0.160296
2023/06/09 01:03:20.511, True, 1.348, 0.159533
2023/06/09 01:03:21.015, True, 1.329, 0.158312
2023/06/09 01:03:21.520, True, 1.324, 0.156634
2023/06/09 01:03:22.015, True, 1.348, 0.158770
2023/06/09 01:03:22.519, True, 1.658, 0.158923
2023/06/09 01:03:23.015, True, 1.011, 0.156023
2023/06/09 01:03:23.519, True, 1.657, 0.160449
2023/06/09 01:03:24.023, True, 1.326, 0.159533
2023/06/09 01:03:24.519, True, 1.348, 0.158389
2023/06/09 01:03:25.023, True, 1.327, 0.158541
2023/06/09 01:03:25.527, True, 1.661, 0.160067
2023/06/09 01:03:26.023, True, 1.345, 0.157702
2023/06/09 01:03:26.527, True, 1.326, 0.160754
2023/06/09 01:03:27.032, True, 1.327, 0.157855
2023/06/09 01:03:27.528, True, 1.348, 0.158160
2023/06/09 01:03:28.032, True, 1.660, 0.158999
2023/06/09 01:03:28.535, True, 1.327, 0.158999
2023/06/09 01:03:29.039, True, 1.326, 0.156939
2023/06/09 01:03:29.535, True, 1.345, 0.159991
2023/06/09 01:03:30.040, True, 1.659, 0.157321
2023/06/09 01:03:30.535, True, 1.349, 0.158160
2023/06/09 01:03:31.039, True, 1.660, 0.158618
2023/06/09 01:03:31.543, True, 1.324, 0.158541
2023/06/09 01:03:32.039, True, 1.349, 0.158618
2023/06/09 01:03:32.543, True, 1.660, 0.157931
2023/06/09 01:03:33.047, True, 1.324, 0.158618
2023/06/09 01:03:33.544, True, 1.348, 0.158236
2023/06/09 01:03:34.047, True, 1.329, 0.159228
2023/06/09 01:03:34.552, True, 1.655, 0.157321
2023/06/09 01:03:35.047, True, 1.348, 0.157473
2023/06/09 01:03:35.552, True, 1.658, 0.158083
2023/06/09 01:03:36.056, True, 1.327, 0.162585
2023/06/09 01:03:36.552, True, 1.348, 0.157473
2023/06/09 01:03:37.055, True, 1.326, 0.157778
2023/06/09 01:03:37.559, True, 1.659, 0.158236
2023/06/09 01:03:38.063, True, 1.327, 0.158160
2023/06/09 01:03:38.559, True, 1.347, 0.159686
2023/06/09 01:03:39.064, True, 1.658, 0.158083
2023/06/09 01:03:39.560, True, 1.348, 0.160678
2023/06/09 01:03:40.064, True, 1.658, 0.157778
2023/06/09 01:03:40.567, True, 1.327, 0.159152
2023/06/09 01:03:41.063, True, 1.349, 0.157931
2023/06/09 01:03:41.567, True, 1.657, 0.157626
2023/06/09 01:03:42.072, True, 1.328, 0.158618
2023/06/09 01:03:42.567, True, 1.346, 0.155718
2023/06/09 01:03:43.071, True, 1.326, 0.157778
2023/06/09 01:03:43.575, True, 1.326, 0.160983
2023/06/09 01:03:44.071, True, 1.350, 0.155947
2023/06/09 01:03:44.575, True, 1.656, 0.159075
2023/06/09 01:03:45.080, True, 1.329, 0.156939
2023/06/09 01:03:45.575, True, 1.345, 0.156939
2023/06/09 01:03:46.080, True, 1.658, 0.157702
2023/06/09 01:03:46.584, True, 1.326, 0.158007
2023/06/09 01:03:47.079, True, 1.348, 0.156863
2023/06/09 01:03:47.583, True, 1.326, 0.158312
2023/06/09 01:03:48.088, True, 1.660, 0.157549
2023/06/09 01:03:48.583, True, 1.346, 0.157778
2023/06/09 01:03:49.088, True, 1.327, 0.158312
2023/06/09 01:03:49.592, True, 1.326, 0.157931
2023/06/09 01:03:50.087, True, 1.684, 0.156634
2023/06/09 01:03:50.592, True, 1.327, 0.158465
2023/06/09 01:03:51.096, True, 1.326, 0.157473
2023/06/09 01:03:51.592, True, 1.685, 0.158236
2023/06/09 01:03:52.096, True, 1.327, 0.155718
2023/06/09 01:03:52.591, True, 1.347, 0.155642
2023/06/09 01:03:53.096, True, 1.328, 0.158770
2023/06/09 01:03:53.600, True, 1.325, 0.157397
2023/06/09 01:03:54.096, True, 1.685, 0.155489
2023/06/09 01:03:54.599, True, 1.326, 0.158465
2023/06/09 01:03:55.104, True, 1.659, 0.159762
2023/06/09 01:03:55.600, True, 1.347, 0.156481
2023/06/09 01:03:56.104, True, 1.327, 0.162432
2023/06/09 01:03:56.607, True, 1.658, 0.157321
2023/06/09 01:03:57.104, True, 1.350, 0.157702
2023/06/09 01:03:57.608, True, 1.325, 0.157015
2023/06/09 01:03:58.112, True, 1.658, 0.159457
2023/06/09 01:03:58.607, True, 1.348, 0.158846
2023/06/09 01:03:59.112, True, 1.658, 0.159762
2023/06/09 01:03:59.615, True, 1.326, 0.156863
2023/06/09 01:04:00.111, True, 1.348, 0.158770
2023/06/09 01:04:00.616, True, 1.659, 0.156939
2023/06/09 01:04:01.120, True, 1.325, 0.155795
2023/06/09 01:04:01.615, True, 1.348, 0.158465
2023/06/09 01:04:02.119, True, 1.658, 0.156100
2023/06/09 01:04:02.624, True, 1.327, 0.157931
2023/06/09 01:04:03.120, True, 1.348, 0.158236
2023/06/09 01:04:03.623, True, 1.658, 0.158236
2023/06/09 01:04:04.119, True, 1.348, 0.158160
2023/06/09 01:04:04.624, True, 1.326, 0.158236
2023/06/09 01:04:05.127, True, 1.328, 0.157855
2023/06/09 01:04:05.623, True, 1.346, 0.157855
2023/06/09 01:04:06.127, True, 1.329, 0.155642
2023/06/09 01:04:06.631, True, 1.655, 0.157321
2023/06/09 01:04:07.127, True, 1.347, 0.156252
2023/06/09 01:04:07.632, True, 1.327, 0.159686
2023/06/09 01:04:08.135, True, 1.657, 0.156558
2023/06/09 01:04:08.639, True, 1.328, 0.155261
2023/06/09 01:04:09.136, True, 1.346, 0.157473
2023/06/09 01:04:09.639, True, 1.326, 0.158083